Regional Weather Roundup
Issued by NWS

Home | Current Version | Previous Version | Text Only | Print | Product List | Glossary On
Versions: 1 2 3 4 5 6 7 8 9 10 11 12 13 14 15 16 17 18 19 20 21 22 23 24 25 26 27 28 29 30 31 32 33 34 35 36 37 38 39 40 41 42 43 44 45 46 47 48 49 50
000
ASUS44 KLUB 031310
RWRTX
WEST TEXAS WEATHER ROUNDUP
NATIONAL WEATHER SERVICE LUBBOCK TX
800 AM CDT SUN MAY 03 2015

NOTE: "FAIR" INDICATES FEW OR NO CLOUDS BELOW 12,000 FEET WITH NO
SIGNIFICANT WEATHER AND/OR OBSTRUCTIONS TO VISIBILITY.

TXZ004-006>008-010-012-014-016-OKZ002-031400-
TEXAS PANHANDLE/OKLAHOMA PANHANDLE

CITY           SKY/WX    TMP DP  RH WIND       PRES   REMARKS
AMARILLO       MOSUNNY   58  46  64 SW8       29.93R
BORGER         MOSUNNY   65  44  46 W9        29.90R
CANADIAN       PTSUNNY   63  53  70 S5        29.88R
DALHART        MOSUNNY   55  44  66 W6        29.93S
DUMAS          MOSUNNY   56  46  67 SW6       29.91S
GUYMON         PTSUNNY   60  47  61 SW12      29.86R
HEREFORD       SUNNY     56  47  72 MISG      29.95R
PAMPA          PTSUNNY   62  46  55 SW8       29.92R
PERRYTON       PTSUNNY   59  49  69 SW9       29.86R
$$

TXZ026-029-035-045-048-031400-
SOUTHERN PANHANDLE/SOUTH PLAINS/ROLLING PLAINS

CITY           SKY/WX    TMP DP  RH WIND       PRES   REMARKS
CHILDRESS      PTSUNNY   62  50  64 SW12      29.92R
SEMINOLE       PTSUNNY   56  45  67 SE3       29.97R
LUBBOCK        MOSUNNY   61  46  57 S7        29.97S
PLAINVIEW      SUNNY     56  46  68 S9        29.95S
SNYDER         SUNNY     56  49  75 CALM      29.99R
$$

TXZ052-054-060>062-072-078-127-140-154-169-031400-
PERMIAN BASIN/CONCHO VALLEY/BIG COUNTRY/EDWARDS PLATEAU

CITY           SKY/WX    TMP DP  RH WIND       PRES   REMARKS
ABILENE        SUNNY     59  54  83 S5        29.99R
BIG SPRING     SUNNY     60  48  66 CALM      30.00R
BRADY          CLOUDY    63  59  88 S10       29.99R
BROWNWOOD      PTSUNNY   59  57  94 S5        30.01R
JUNCTION       CLOUDY    65  59  81 S3        30.00R
MIDLAND        MOSUNNY   61  49  64 S13       29.95R
ODESSA         MOSUNNY   62  47  57 S9        29.96R
SAN ANGELO     SUNNY     65  57  75 S14G22    29.96R
SONORA         CLOUDY    64  59  82 S14       30.03R
SWEETWATER     SUNNY     60  52  76 SE8       30.01R
WINK           SUNNY     55  44  66 SE9       29.92R
$$

TXZ055-058-074-075-080-082-031400-
FAR WEST/SOUTHWEST MOUNTAINS/TRANS PECOS

CITY           SKY/WX    TMP DP  RH WIND       PRES   REMARKS
ALPINE         MOCLDY    62  45  52 S7        30.06R
DRYDEN           N/A     62  58  86 E13       29.95R
EL PASO        PTCLDY    64  36  35 E5        29.94S
FORT STOCKTON  SUNNY     60  47  61 SE15      29.93R
GUADALUPE PASS MOCLDY    63  34  33 S8        30.05R
MARFA          PTCLDY    55  46  71 N5        30.05R
PECOS          PTCLDY    57  46  65 NE5       29.91R
PRESIDIO       FAIR      69  48  47 N6        29.93R
$$

TXZ014-016-019-021>030-083-031400
TEXAS TECH WEST TEXAS MESONET/TEXAS PANHANDLE/NORTHERN SOUTH PLAINS

CITY           SKY/WX    TMP DP  RH WIND       PRES   REMARKS
ABERNATHY 5ENE   N/A     60  47  63 S10       29.97S
AMARILLO 9NNE    N/A     64  47  54 SW2       29.92S
AMARILLO 7SSE    N/A     61  46  57 SW9       29.94R
AMHERST 1NE      N/A     58  45  62 S10       29.96R
BOOTLEG 11WNW    N/A     58  44  60 W10       29.99R
CANADIAN 6E      N/A     63  51  65 S3        29.87R
CAPROCK CYN SP   N/A     67  46  46 SW22      29.91S
CHILDRESS 2NNE   N/A     64  49  59 S13       29.91R
CLARENDON 2WSW   N/A     65  45  49 S14       29.91R
CLAUDE 12SW      N/A     65  46  50 S9        29.93R
DIMMITT 2NE      N/A     57  46  67 S10       29.95R
FLOYDADA 2NNE    N/A     59  46  61 SW10      29.96S
FRIONA 2NE       N/A     57  46  65 SW8       29.97R
GOODLETT 3W      N/A     61  52  71 S14       29.91R
HART 3N          N/A     59  46  61 SE14      29.95S
HEREFORD 2NW     N/A     57  45  65 SW6       29.95R
MCLEAN 1E        N/A     62  48  60 S9        29.89S
MEMPHIS 1NE      N/A     63  50  63 S6        29.90R
MULESHOE 2SSW    N/A     56  46  67 S8        29.96R
OLTON 6S         N/A     58  45  60 SE12      29.95S
PALO DURO SP     N/A     63  45  52 S12       29.95R
PAMPA 2E         N/A     61  47  61 S9        29.91R
PLAINVIEW 1S     N/A     57  46  67 S9        29.96S
SILVERTON 7ESE   N/A     62  45  53 SW21      29.94S
TULIA 2ENE       N/A     59  46  61 S15       29.94S
TURKEY 2WSW      N/A     66  47  50 SW18      29.91R
UMBARGER 3NNE    N/A     58  46  65 S12       29.94R
$$

TXZ033>036-039>041-045>048-031400
TEXAS TECH WEST TEXAS MESONET/SOUTH PLAINS

CITY           SKY/WX    TMP DP  RH WIND       PRES   REMARKS
AIKEN 3WSW       N/A     57  47  68 S13       29.97F
ANDREWS 2NE      N/A     60  45  58 E5        29.97R
ANTON 6SSW       N/A     57  45  65 SE8       29.97S
BROWNFIELD 2S    N/A     56  45  67 E5        29.97S
GAIL 2ESE        N/A     60  48  63 CALM      29.98R
LAMESA 2SE       N/A     57  47  70 E2        29.98S
LEVELLAND 4S     N/A     58  43  57 SE6       29.98R
LUBBOCK 3WNW     N/A     62  45  52 S8        29.97F
MORTON 1ENE      N/A     61  45  56 SE9       29.95S
ODONNELL 1N      N/A     59  45  60 E6        29.98S
PLAINS 3N        N/A     56  46  69 S6        29.98S
RALLS 1SE        N/A     62  47  58 SW14      29.98S
REESE CENTER     N/A     58  46  63 S6        29.97S
SEAGRAVES 1SW    N/A     53  46  78 NW5       29.98R
SEMINOLE 2NNE    N/A     56  45  66 N6        29.99R
SLATON 2NE       N/A     60  49  68 SW3       29.99R
SNYDER 3E        N/A     59  50  73 S6        29.98R
SUNDOWN 8SW      N/A     60  46  59 S6        29.98R
TAHOKA 3NNE      N/A     60  47  61 SE3       29.97F
WOLFFORTH 6SSW   N/A     55  45  69 SE5       29.99R
$$

TXZ031-032-036>038-042>044-031400-
TEXAS TECH WEST TEXAS MESONET/ROLLING PLAINS

CITY           SKY/WX    TMP DP  RH WIND       PRES   REMARKS
ASPERMONT 3NE    N/A     60  51  72 S5        29.97R
FLUVANNA 3WNW    N/A     58  48  68 SE8       29.98R
GRAHAM 5SSW      N/A     60  47  61 S7        29.98S
GUTHRIE 10WSW    N/A     58  49  72 S8        29.95R
HASKELL 1NW      N/A     61  51  69 S8        29.97R
JAYTON 1SSE      N/A     57  50  76 S2        29.97R
KNOX CITY 3NW    N/A     62  51  66 S9        29.97R
LK A HENRY 1NW   N/A     59  50  71 SW2       29.97R
NORTHFIELD 1S    N/A     61  49  66 S10       29.92R
ODELL 4ENE       N/A     64  54  70 S13       29.94R
PADUCAH 10SW     N/A     58  49  72 S8        29.94R
POST 1NE         N/A     61  48  61 SW2       29.97S
RRING SPRGS 3N   N/A     62  49  63 SW13      29.94S
SEYMOUR 3NW      N/A     64  53  67 S6        29.96R
SPUR 1W          N/A     55  48  77 SW2       29.96S
WEINERT 2NNE     N/A     62  53  72 S12       29.96S
WHITE RVR 6NE    N/A     63  47  57 S12       29.97R
$$

TXZ052-054-060>062-072-078-127-140-154-169-031400-
TEXAS TECH WEST TEXAS MESONET/PERMIAN BASIN/
CONCHO VALLEY/BIG COUNTRY/EDWARDS PLATEAU

CITY           SKY/WX    TMP DP  RH WIND       PRES   REMARKS
COYANOSA 2N      N/A     63  47  57 S5        29.93R
JUNCTION 1SSW    N/A     65  58  79 S10       30.01R
MERTZON 3NNE     N/A     64  57  79 S14       29.98R
SAN ANGELO 7NW   N/A     62  55  77 S3        29.98R
STRLNG CT 4WSW   N/A     60  55  83 S7        29.99R
ST LAWRNCE 5SW   N/A     60  55  83 S15       29.96R
SWEETWATR 11SW   N/A     59  52  77 SE9       30.00R
WALL 1E          N/A     64  56  75 S9        29.98R
$$

TXZ055-058-074-075-080-082-031400-
TEXAS TECH WEST TEXAS MESONET/FAR WEST/SOUTHWEST MOUNTAINS/TRANS PECOS

CITY           SKY/WX    TMP DP  RH WIND       PRES   REMARKS
PRSMN GAP BBNP   N/A     61  47  59 N13       29.96R
$$



USA.gov is the U.S. government's official web portal to all federal, state and local government web resources and services.